Driggs, ID

6:35 AM MDT on June 22, 2017 (GMT -0600)
Driggs

Weather History for KDIJ - February, 2013

Change the Weather History Date:

Sunday, February 10, 2013

  Actual Average (KJAC) Record (KJAC)
Temperature  
Mean Temperature 12 °F -  
Max Temperature 24 °F 27 °F 48 °F (2015)
Min Temperature -2 °F 1 °F -30 °F (1989)
Degree Days  
Heating Degree Days 54    
Moisture  
Dew Point 7 °F    
Average Humidity 76    
Maximum Humidity 93    
Minimum Humidity 42    
Precipitation  
Precipitation 0.00 in - - ()
Sea Level Pressure  
Sea Level Pressure 29.93 in    
Wind  
Wind Speed 6 mph (NNE)    
Max Wind Speed 22 mph    
Max Gust Speed -    
Visibility 8 miles    
Events Fog , Snow    
Averages and records for this station are not official NWS values.
T = Trace of Precipitation, MM = Missing Value Source: NWS Daily Summary

Daily Weather History Graph

Daily Weather History Graph

Search for Another Location

Airport or City:

Trip Planner

Search our weather history database for the weather conditions in past years. The results will help you decide how hot, cold, wet, or windy it might be!

Date:

Astronomy

Feb. 10, 2013 Rise Set
Actual Time 7:29 AM MST 5:48 PM MST
Civil Twilight 6:59 AM MST 6:18 PM MST
Nautical Twilight 6:26 AM MST 6:51 PM MST
Astronomical Twilight 5:52 AM MST 7:25 PM MST
Moon 7:18 AM MST (2/10) 6:46 PM MST (2/10)
Length of Visible Light 11h 18m
Length of Day
10h 18m
New Moon, 0% of the Moon is Illuminated
Feb 10
New Moon
Feb 17
First Quarter
Feb 25
Full
Mar 4
Last Quarter
Mar 11
New

Hourly Weather History & Observations

Time (MST) Temp. Windchill Dew Point Humidity Pressure Visibility Wind Dir Wind Speed Gust Speed Precip Events Conditions
12:08 AM 21.2 °F 16.4 °F 19.4 °F 93% 29.77 in 1.8 mi NNW 3.5 mph - 0.00 in Snow Light Snow
12:17 AM 21.2 °F 16.4 °F 19.4 °F 93% 29.77 in 2.0 mi NNW 3.5 mph - 0.00 in Snow Light Snow
12:31 AM 19.4 °F 12.8 °F 17.6 °F 93% 29.77 in 4.0 mi North 4.6 mph - 0.00 in Snow Light Snow
12:56 AM 19.0 °F 12.3 °F 16.2 °F 89% 29.83 in 10.0 mi North 4.6 mph - 0.00 in Snow Light Snow
1:01 AM 17.6 °F 10.7 °F 15.8 °F 93% 29.78 in 10.0 mi North 4.6 mph - 0.00 in Snow Light Snow
1:09 AM 17.6 °F 12.3 °F 14.0 °F 86% 29.78 in 10.0 mi North 3.5 mph - 0.00 in Snow Light Snow
1:29 AM 8.6 °F - 6.8 °F 92% 29.78 in 1.2 mi Calm Calm - 0.00 in   Mostly Cloudy
1:31 AM 8.6 °F - 5.0 °F 85% 29.78 in 0.8 mi Calm Calm - 0.00 in   Mostly Cloudy
1:33 AM 8.6 °F - 5.0 °F 85% 29.78 in 0.5 mi Calm Calm - 0.00 in Fog Light Freezing Fog
1:38 AM 12.2 °F 4.3 °F 10.4 °F 92% 29.78 in 0.8 mi East 4.6 mph - 0.00 in   Mostly Cloudy
1:41 AM 12.2 °F 4.3 °F 10.4 °F 92% 29.78 in 1.2 mi East 4.6 mph - 0.00 in   Mostly Cloudy
1:43 AM 14.0 °F 6.5 °F 10.4 °F 86% 29.78 in 4.0 mi East 4.6 mph - 0.00 in   Mostly Cloudy
1:56 AM 12.0 °F 5.9 °F 10.0 °F 92% 29.84 in 10.0 mi Variable 3.5 mph - 0.00 in   Scattered Clouds
2:56 AM 12.0 °F - 9.1 °F 88% 29.86 in 10.0 mi Calm Calm - N/A   Scattered Clouds
3:56 AM 15.1 °F 9.4 °F 12.0 °F 88% 29.83 in 10.0 mi SW 3.5 mph - N/A   Mostly Cloudy
4:56 AM 12.0 °F 5.9 °F 9.1 °F 88% 29.87 in 10.0 mi East 3.5 mph - N/A   Scattered Clouds
5:56 AM 10.0 °F - 7.2 °F 88% 29.92 in 10.0 mi Calm Calm - N/A   Scattered Clouds
6:56 AM 9.1 °F 2.6 °F 6.1 °F 87% 29.94 in 10.0 mi East 3.5 mph - N/A   Partly Cloudy
7:56 AM 10.0 °F 3.6 °F 7.2 °F 88% 29.96 in 10.0 mi SE 3.5 mph - N/A   Partly Cloudy
8:56 AM 13.1 °F 4.0 °F 10.0 °F 88% 29.98 in 10.0 mi SE 5.8 mph - N/A   Partly Cloudy
9:56 AM 15.1 °F - 12.0 °F 88% 29.99 in 10.0 mi Calm Calm - N/A   Partly Cloudy
10:21 AM 19.4 °F 6.0 °F 10.4 °F 68% 29.89 in 10.0 mi NNW 13.8 mph - 0.00 in   Clear
10:56 AM 23.0 °F 12.4 °F 7.2 °F 51% 29.96 in 10.0 mi North 10.4 mph - 0.00 in   Partly Cloudy
11:56 AM 22.1 °F 6.8 °F 7.2 °F 53% 29.96 in 10.0 mi North 20.7 mph - N/A   Clear
12:56 PM 22.1 °F 6.8 °F 7.2 °F 53% 29.96 in 10.0 mi North 20.7 mph - N/A   Clear
1:56 PM 24.1 °F 9.0 °F 6.1 °F 46% 29.99 in 10.0 mi North 21.9 mph - N/A   Clear
2:56 PM 24.1 °F 11.5 °F 5.0 °F 44% 29.99 in 10.0 mi North 15.0 mph - N/A   Clear
3:56 PM 24.1 °F 11.5 °F 4.1 °F 42% 29.99 in 10.0 mi North 15.0 mph - N/A   Clear
4:56 PM 19.0 °F 5.6 °F 4.1 °F 52% 30.04 in 10.0 mi North 13.8 mph - N/A   Clear
5:56 PM 15.1 °F -0.1 °F 2.1 °F 57% 30.09 in 10.0 mi NNW 15.0 mph - N/A   Clear
6:56 PM 9.1 °F -7.7 °F -1.8 °F 61% 30.14 in 10.0 mi North 15.0 mph - N/A   Clear
7:56 PM 10.0 °F -6.5 °F -1.8 °F 59% 30.14 in 10.0 mi North 15.0 mph - N/A   Clear
8:56 PM 2.1 °F -9.0 °F -8.0 °F 63% 30.19 in 10.0 mi South 5.8 mph - N/A   Clear
9:56 PM 0.1 °F -14.0 °F -6.9 °F 72% 30.21 in 10.0 mi SSE 8.1 mph - N/A   Clear
10:56 PM -1.8 °F -16.4 °F -8.9 °F 72% 30.19 in 10.0 mi SSE 8.1 mph - N/A   Clear
11:56 PM -2.9 °F -16.5 °F -9.9 °F 72% 30.20 in 10.0 mi SSE 6.9 mph - N/A   Clear